This is the latest recevied weather packets stored in our database for station/object KM7BEO. If no packets are shown the sender has not sent any weather packets the latest 10 day(s).
| Time | Temp. | Humidity | Pressure | Rain* | Wind** | Luminosity | Snow |
|---|---|---|---|---|---|---|---|
| 1777740162 | 14.44° C | 81% | 1017.3 hPa | 0 mm | - | 278 W/m² | - |
| 1777739858 | 14.44° C | 80% | 1017.2 hPa | 0 mm | - | 243 W/m² | - |
| 1777739555 | 14.44° C | 81% | 1017.2 hPa | 0 mm | - | 216 W/m² | - |
| 1777739252 | 13.89° C | 83% | 1017.1 hPa | 0 mm | - | 216 W/m² | - |
| 1777738949 | 13.89° C | 84% | 1017.3 hPa | 0 mm | - | 266 W/m² | - |
| 1777738646 | 13.33° C | 85% | 1017 hPa | 0 mm | - | 227 W/m² | - |
| 1777738342 | 12.78° C | 86% | 1016.9 hPa | 0 mm | - | 209 W/m² | - |
| 1777738040 | 12.78° C | 88% | 1017 hPa | 0 mm | - | 157 W/m² | - |
| 1777737739 | 12.22° C | 90% | 1017.1 hPa | 0 mm | - | 180 W/m² | - |
| 1777737437 | 11.67° C | 91% | 1017 hPa | 0 mm | - | 166 W/m² | - |
| 1777737135 | 11.67° C | 91% | 1017 hPa | 0 mm | - | 137 W/m² | - |
| 1777736830 | 11.67° C | 90% | 1017.2 hPa | 0 mm | - | 123 W/m² | - |
| 1777736211 | 11.67° C | 89% | 1017.3 hPa | 0 mm | - | 102 W/m² | - |
| 1777735908 | 12.22° C | 88% | 1017 hPa | 0 mm | - | 79 W/m² | - |
| 1777735606 | 12.22° C | 87% | 1017.2 hPa | 0 mm | - | 67 W/m² | - |
| 1777735303 | 12.22° C | 87% | 1016.9 hPa | 0 mm | - | 78 W/m² | - |
| 1777735001 | 12.22° C | 89% | 1016.9 hPa | 0 mm | - | 91 W/m² | - |
| 1777734698 | 12.22° C | 92% | 1017 hPa | 0 mm | - | 123 W/m² | - |
| 1777734395 | 11.11° C | 93% | 1017.1 hPa | 0 mm | - | 108 W/m² | - |
| 1777734091 | 11.11° C | 93% | 1016.9 hPa | 0 mm | - | 84 W/m² | - |
| 1777733788 | 11.11° C | 93% | 1017 hPa | 0 mm | - | 75 W/m² | - |
| 1777733485 | 11.67° C | 92% | 1016.8 hPa | 0 mm | - | 93 W/m² | - |
| 1777733180 | 12.22° C | 94% | 1016.9 hPa | 0 mm | - | 77 W/m² | - |
| 1777732877 | 11.67° C | 96% | 1016.8 hPa | 0 mm | - | 84 W/m² | - |
| 1777732574 | 11.11° C | 97% | 1016.8 hPa | 0 mm | - | 86 W/m² | - |
* Rain latest hour (hover to see other rain measurements)
** Current wind speed in m/s (hover to see current wind gust speed)